PSLKS SJFU-SJBX

Flight info

Callsign PSLKS
Flight time 0h 20m
Altitude 7500
Route DCT
Aircraft DA62/L-SDFGRY/C

Departure

Time 2026-04-10 01:13
Airport Tabuleiro Airport (SJFU)

Arrival

Time 2026-04-10 01:34
Airport Severino Lopes Airport (SJBX)
Time Latitude Longitude Altitude Speed Heading
2026-04-10 01:06 -6.69082 -35.62979 1730 ft 0 kts 194°
2026-04-10 01:12 -6.69205 -35.63010 1737 ft 43 kts 194°
2026-04-10 01:12 -6.69628 -35.63114 1757 ft 80 kts 195°
2026-04-10 01:12 -6.70214 -35.63254 1953 ft 89 kts 192°
2026-04-10 01:13 -6.70835 -35.63400 2177 ft 98 kts 187°
2026-04-10 01:13 -6.71523 -35.63523 2480 ft 103 kts 187°
2026-04-10 01:13 -6.72211 -35.63512 2804 ft 99 kts 145°
2026-04-10 01:13 -6.72380 -35.62904 3132 ft 101 kts 68°
2026-04-10 01:14 -6.71820 -35.62456 3442 ft 107 kts 34°
2026-04-10 01:14 -6.71186 -35.62070 3786 ft 107 kts 36°
2026-04-10 01:14 -6.70544 -35.61674 4119 ft 108 kts 36°
2026-04-10 01:14 -6.69903 -35.61274 4440 ft 108 kts 36°
2026-04-10 01:15 -6.69261 -35.60865 4804 ft 109 kts 36°
2026-04-10 01:15 -6.68615 -35.60453 5158 ft 110 kts 36°
2026-04-10 01:15 -6.68041 -35.60134 5450 ft 112 kts 19°
2026-04-10 01:15 -6.67353 -35.59787 5791 ft 111 kts 34°
2026-04-10 01:16 -6.66676 -35.59399 6120 ft 112 kts 31°
2026-04-10 01:16 -6.65988 -35.59018 6455 ft 113 kts 30°
2026-04-10 01:16 -6.65299 -35.58642 6766 ft 113 kts 30°
2026-04-10 01:17 -6.63898 -35.57888 7305 ft 114 kts 29°
2026-04-10 01:17 -6.63187 -35.57506 7486 ft 123 kts 29°
2026-04-10 01:17 -6.63002 -35.57407 7490 ft 129 kts 29°
2026-04-10 01:18 -6.62736 -35.57264 7495 ft 136 kts 29°
2026-04-10 01:18 -6.61850 -35.56789 7501 ft 152 kts 29°
2026-04-10 01:18 -6.60877 -35.56269 7498 ft 163 kts 29°
2026-04-10 01:18 -6.59854 -35.55722 7497 ft 170 kts 29°
2026-04-10 01:19 -6.58791 -35.55153 7497 ft 175 kts 29°
2026-04-10 01:19 -6.57704 -35.54571 7500 ft 178 kts 29°
2026-04-10 01:19 -6.56601 -35.53981 7489 ft 180 kts 29°
2026-04-10 01:19 -6.55490 -35.53387 7489 ft 181 kts 29°
2026-04-10 01:20 -6.54377 -35.52791 7490 ft 181 kts 29°
2026-04-10 01:20 -6.53264 -35.52195 7490 ft 182 kts 29°
2026-04-10 01:20 -6.52146 -35.51597 7490 ft 182 kts 29°
2026-04-10 01:20 -6.51028 -35.50999 7490 ft 182 kts 29°
2026-04-10 01:21 -6.49907 -35.50398 7490 ft 183 kts 29°
2026-04-10 01:21 -6.48785 -35.49797 7490 ft 183 kts 29°
2026-04-10 01:21 -6.47663 -35.49197 7490 ft 183 kts 28°
2026-04-10 01:21 -6.46537 -35.48597 7477 ft 183 kts 29°
2026-04-10 01:22 -6.45414 -35.47995 7476 ft 184 kts 29°
2026-04-10 01:22 -6.44285 -35.47389 7480 ft 184 kts 29°
2026-04-10 01:22 -6.43153 -35.46785 7436 ft 186 kts 29°
2026-04-10 01:22 -6.41992 -35.46165 7228 ft 189 kts 29°
2026-04-10 01:23 -6.40842 -35.45551 7000 ft 185 kts 29°
2026-04-10 01:23 -6.39712 -35.44947 6772 ft 183 kts 29°
2026-04-10 01:23 -6.38590 -35.44346 6549 ft 182 kts 29°
2026-04-10 01:23 -6.37477 -35.43750 6323 ft 181 kts 29°
2026-04-10 01:24 -6.36367 -35.43157 6098 ft 180 kts 29°
2026-04-10 01:24 -6.35262 -35.42567 5873 ft 180 kts 29°
2026-04-10 01:24 -6.34157 -35.41974 5648 ft 179 kts 29°
2026-04-10 01:24 -6.33055 -35.41386 5416 ft 178 kts 29°
2026-04-10 01:25 -6.31963 -35.40803 5198 ft 178 kts 29°
2026-04-10 01:25 -6.30872 -35.40220 4972 ft 177 kts 30°
2026-04-10 01:25 -6.29786 -35.39639 4758 ft 176 kts 30°
2026-04-10 01:25 -6.28714 -35.39066 4582 ft 173 kts 30°
2026-04-10 01:26 -6.27657 -35.38502 4406 ft 171 kts 30°
2026-04-10 01:26 -6.26610 -35.37942 4231 ft 170 kts 30°
2026-04-10 01:26 -6.25571 -35.37387 4056 ft 169 kts 30°
2026-04-10 01:26 -6.24538 -35.36833 3881 ft 168 kts 31°
2026-04-10 01:27 -6.23543 -35.36301 3716 ft 167 kts 31°
2026-04-10 01:27 -6.22519 -35.35755 3536 ft 166 kts 31°
2026-04-10 01:27 -6.21501 -35.35213 3361 ft 165 kts 31°
2026-04-10 01:27 -6.20490 -35.34672 3185 ft 165 kts 31°
2026-04-10 01:28 -6.19480 -35.34132 3010 ft 164 kts 31°
2026-04-10 01:28 -6.18475 -35.33593 2834 ft 164 kts 31°
2026-04-10 01:28 -6.17476 -35.33059 2664 ft 165 kts 30°
2026-04-10 01:28 -6.16458 -35.32516 2485 ft 166 kts 29°
2026-04-10 01:29 -6.15437 -35.31970 2311 ft 166 kts 29°
2026-04-10 01:29 -6.14421 -35.31426 2136 ft 165 kts 28°
2026-04-10 01:29 -6.13408 -35.30887 1962 ft 164 kts 28°
2026-04-10 01:29 -6.12399 -35.30348 1786 ft 164 kts 27°
2026-04-10 01:30 -6.11393 -35.29810 1612 ft 164 kts 27°
2026-04-10 01:30 -6.10390 -35.29275 1437 ft 162 kts 27°
2026-04-10 01:30 -6.09398 -35.28744 1261 ft 161 kts 27°
2026-04-10 01:30 -6.08733 -35.28389 1162 ft 159 kts 27°
2026-04-10 01:31 -6.07785 -35.27883 1157 ft 149 kts 27°
2026-04-10 01:31 -6.06874 -35.27447 1149 ft 142 kts 12°
2026-04-10 01:31 -6.05922 -35.27496 1147 ft 137 kts 353°
2026-04-10 01:31 -6.04985 -35.27627 1146 ft 129 kts 352°
2026-04-10 01:32 -6.04125 -35.27745 1144 ft 123 kts 352°
2026-04-10 01:32 -6.03282 -35.27849 1140 ft 124 kts 358°
2026-04-10 01:32 -6.02428 -35.27707 965 ft 125 kts 16°
2026-04-10 01:32 -6.01681 -35.27325 793 ft 118 kts 45°
2026-04-10 01:33 -6.01346 -35.26634 655 ft 110 kts 81°
2026-04-10 01:33 -6.01365 -35.25863 490 ft 112 kts 99°
2026-04-10 01:33 -6.01599 -35.25126 344 ft 111 kts 109°
2026-04-10 01:33 -6.01788 -35.24463 233 ft 87 kts 103°
2026-04-10 01:34 -6.01877 -35.24109 235 ft 18 kts 104°
2026-04-10 01:34 -6.01929 -35.24025 237 ft 11 kts 135°
2026-04-10 01:34 -6.01972 -35.24014 238 ft 3 kts 168°
2026-04-10 01:34 -6.01978 -35.24010 238 ft 0 kts 125°